Flag for Russia Weather past 2 weeks in Kazan, Russia

Now
59 °F

Sunny.


Feels Like: 60 °F
Forecast: 39 / 54 °F
Wind: 3 mph from North

Location: Kazan'


UV Index: 3 (Moderate)

Visibility: 10 mi


Pressure: 30.24 "Hg

Humidity: 39%

Dew point: 34 °F

Location of KazanLocation

Historic Weather in Kazan

°F

Kazan temperature yesterday

Maximum temperature yesterday: 61 °F (at 4:00 PM)
Minimum temperature yesterday: 32 °F (at 6:00 AM)
Average temperature yesterday: 46 °F

Past Weeks' High & Low Weather Summary

 TemperatureHumidityPressure
High61 °F (Apr 19, 4:00 PM)100% (Apr 5, 11:30 AM)30.51 "Hg (Apr 5, 11:30 AM)
Low19 °F (Apr 11, 6:00 AM)27% (Apr 19, 4:00 PM)29.56 "Hg (Apr 7, 10:00 AM)
Average37 °F72%30.08 "Hg
* Reported Apr 5 10:00 AM — Apr 20 10:30 AM, Kazan, Weather by CustomWeather, © 2014

Note: Actual official high and low records may vary slightly from our data, if they occured in-between our weather recording intervals... More about our weather records

Advertising

Historic Weather Conditions — Data for Previous 24 hours

 ConditionsComfort  
Time TempWeatherWind HumidityBarometerVisibility
10:30 AM
Apr 20
59 °FSunny.3 mph39%30.24 "Hg10 mi
10:00 AM57 °FSunny.3 mph41%30.24 "Hg10 mi
9:30 AM55 °FSunny.3 mph44%30.24 "Hg10 mi
9:00 AM54 °FSunny.3 mph44%30.24 "Hg10 mi
8:30 AM50 °FSunny.3 mph54%30.24 "Hg10 mi
8:00 AM46 °FSunny.3 mph66%30.24 "Hg10 mi
7:30 AM43 °FSunny.3 mph71%30.24 "Hg10 mi
7:00 AM39 °FSunny.3 mph81%30.24 "Hg10 mi
6:30 AM39 °FSunny.3 mph75%30.24 "Hg10 mi
6:00 AM39 °FClear.3 mph75%30.24 "Hg10 mi
5:30 AM39 °FClear.3 mph70%30.24 "Hg10 mi
5:00 AM37 °FClear.3 mph75%30.24 "Hg10 mi
4:30 AM37 °FClear.3 mph75%30.24 "Hg10 mi
4:00 AM37 °FClear.3 mph75%30.24 "Hg10 mi
3:30 AM39 °FClear.3 mph70%30.24 "Hg10 mi
3:00 AM41 °FClear.3 mph66%30.24 "Hg10 mi
2:30 AM43 °FClear.3 mph61%30.24 "Hg10 mi
2:00 AM41 °FClear.3 mph66%30.24 "Hg10 mi
1:30 AM43 °FClear.3 mph61%30.24 "Hg10 mi
1:00 AM43 °FClear.3 mph66%30.24 "Hg10 mi
12:30 AM41 °FClear.6 mph70%30.24 "Hg10 mi
12:00 AM41 °FClear.3 mph70%30.24 "Hg10 mi
11:30 PM
Apr 19
43 °FClear.6 mph66%30.24 "Hg10 mi
11:00 PM43 °FClear.6 mph71%30.24 "Hg10 mi
10:30 PM43 °FClear.6 mph71%30.24 "Hg10 mi
10:00 PM46 °FClear.6 mph57%30.24 "Hg10 mi
9:30 PM46 °FClear.6 mph57%30.24 "Hg10 mi
9:00 PM45 °FClear.6 mph71%30.24 "Hg10 mi
8:30 PM48 °FSunny.6 mph62%30.24 "Hg10 mi
8:00 PM48 °FSunny.6 mph62%30.24 "Hg10 mi
7:30 PM50 °FSunny.6 mph62%30.24 "Hg10 mi
7:00 PM54 °FSunny.8 mph54%30.24 "Hg10 mi
6:30 PM55 °FSunny.8 mph51%30.24 "Hg10 mi
6:00 PM59 °FSunny.8 mph34%30.24 "Hg10 mi
5:30 PM61 °FSunny.8 mph29%30.24 "Hg10 mi
5:00 PM61 °FSunny.6 mph27%30.24 "Hg10 mi
4:30 PM61 °FSunny.6 mph27%30.27 "Hg10 mi
4:00 PM61 °FSunny.6 mph27%30.27 "Hg10 mi
3:30 PM59 °FSunny.8 mph31%30.27 "Hg10 mi
3:00 PM59 °FSunny.6 mph31%30.27 "Hg10 mi
2:00 PM59 °FSunny.6 mph31%30.30 "Hg10 mi
1:30 PM57 °FSunny.6 mph29%30.30 "Hg10 mi
1:00 PM57 °FSunny.6 mph39%30.30 "Hg10 mi
12:30 PM57 °FSunny.6 mph31%30.30 "Hg10 mi
12:00 PM55 °FSunny.8 mph38%30.30 "Hg10 mi
11:30 AM55 °FSunny.3 mph36%30.33 "Hg10 mi
11:00 AM54 °FSunny.6 mph35%30.33 "Hg10 mi
Weather by CustomWeather, © 2014

See weather overview